Starlink 30912

operational
NORAD ID: 58422 Int'l Des: 2023-180 Owner: SPXS Country: US Constellation: starlink
LEOCIRCULAR

Über Starlink 30912

Beschreibung wird geladen...

Live-Position

3D-Globus wird geladen...

Nächste Überflüge

Höhenverlauf

Altitude vs Time

uPlot chart will show altitude changes over time

Zweizeiliger Elementsatz

1 58422U 23180W 25300.07846087 .00000555 00000-0 29692-4 0 9992
2 58422 43.0062 304.8664 0001651 264.1391 95.9273 15.27574495108865
Epoch: 27. Okt. 2025 • Age: 35 hours

Aktueller Status

Höhe 485.0 km
Geschwindigkeit 7.62 km/s
Subsatellitenpunkt -12.43°S, 106.07°W
Startdatum 22. Nov. 2023
Alter 1.9 years
Typ internet

Technische Details

Klassifizierung Payload
Masse 730.00 kg
Trockenmasse 700.00 kg
Gesamtmasse 730.00 kg
Länge 0.30 m
Durchmesser 4.10 m
Spannweite 29.00 m
Form Box + pan
Hersteller SPXS
Bus-Typ Starlink V2M
Phasenstatus In Orbit
Besitzer/Staat SPXS/US

Große Konstellationen

Loading constellations...